Location: Dealu Mare
(46.0500°N, 22.8167°E)
Time: 12:13:16
(UTC+00:00)

Daily predictions for brighter satellites

Satellite Brightness Start Highest point End
(mag) Time Altitude Azimuth Time Altitude Azimuth Time Altitude Azimuth
CZ-2C R/B 4.3 18:14:26 10° NNE 18:18:46 38° E 18:23:00 10° SSE
Lacrosse 5 3.8 18:15:22 10° NW 18:19:28 24° N 18:23:33 10° ENE
MOS 1 Rocket 4.0 18:14:07 10° N 18:19:35 73° WNW 18:24:55 10° SSW
SL-8 Rocket 4.3 18:17:01 10° SSW 18:23:11 76° W 18:29:26 10° N
Shenzhou-11 Module 2.1 18:21:12 10° WSW 18:23:25 36° S 18:25:38 10° ESE
Meteor 2-6 Rocket 4.3 18:19:34 10° N 18:25:01 62° ENE 18:30:35 10° SSE
Cosmos 1818 4.1 18:21:03 10° NNW 18:26:21 47° NE 18:31:34 10° ESE
Cosmos 2082 Rocket 3.5 18:22:46 10° SE 18:26:42 19° E 18:30:37 10° NE
Sich 1 4.0 18:23:13 10° SSE 18:27:02 29° E 18:30:52 10° NNE
Cosmos 1862 3.8 18:23:31 10° SSE 18:27:20 42° E 18:31:11 10° NNE
SJ-6B 3.3 18:25:56 10° S 18:29:58 65° WSW 18:33:59 10° NNW
Cosmos 1500 Rocket 3.6 18:32:40 10° S 18:36:59 82° W 18:41:20 10° N
SL-08 R/B 4.5 18:31:17 10° S 18:37:29 75° E 18:43:38 10° NNE
Ariane Rocket 3.9 18:32:50 10° S 18:37:44 50° W 18:42:40 10° NNW
USA 234 3.8 18:32:21 10° E 18:38:38 52° NNE 18:44:56 10° NW
Resurs 1-3 3.6 18:37:34 10° SSE 18:41:58 85° ENE 18:46:22 10° NNW
CZ-2C R/B 2.7 18:38:11 10° NNE 18:43:23 80° WNW 18:48:35 10° SSW
Cosmos 407 Rocket 4.0 18:39:05 10° S 18:43:59 39° ESE 18:48:52 10° NE
Terra 3.9 18:43:24 10° E 18:45:21 12° ENE 18:47:18 10° NNE
Meteor 1-4 Rocket 4.0 18:43:35 10° NNE 18:46:19 21° ENE 18:48:15 14° ESE
SL-8 R/B 3.9 18:41:58 10° WNW 18:46:45 62° SSW 18:50:51 14° SE
USA 186 4.1 18:46:23 10° SW 18:47:42 14° W 18:49:00 10° WNW
Cosmos 1666 Rocket 4.3 18:44:37 10° SSE 18:48:26 31° E 18:52:15 10° NNE
Meteor 1-27 Rocket 4.1 18:43:06 10° N 18:48:52 52° ENE 18:54:27 11° SSE
Meteor 1-10 Rocket 4.3 18:43:43 10° N 18:49:24 81° ENE 18:55:10 10° SSE
H-2A R/B 4.5 18:53:01 10° SW 18:56:51 21° W 19:00:38 10° NW
SPOT 5 4.3 18:56:40 12° E 18:59:05 19° ENE 19:02:06 10° NNE
Cosmos 1805 Rocket 3.5 18:55:39 10° S 19:00:04 85° E 19:04:33 10° N
Cosmos 1980 Rocket 3.0 18:55:56 10° NNW 19:01:15 39° NE 19:05:19 16° ESE
ERBS 4.4 19:00:07 10° W 19:03:04 29° NNW 19:06:01 10° NE
SPOT 1/Viking Rocket 4.2 18:59:15 15° SE 19:03:05 40° ENE 19:07:56 10° N
Cosmos 972 4.4 18:59:30 10° NNW 19:04:46 83° ENE 19:08:59 14° SSE
Cosmos 1140 Rocket 3.7 19:04:45 10° S 19:09:47 50° ESE 19:14:51 10° NNE
ATLAS 5 CENTAUR R/B 2.8 19:04:17 10° NW 19:09:58 60° WSW 19:15:45 14° SSE
SL-4 R/B 2.0 19:07:06 10° SW 19:10:56 46° SE 19:14:29 10° ENE
Genesis I 4.3 19:10:07 10° NNW 19:13:41 33° NE 19:15:51 19° E
Cosmos 405 Rocket 4.4 19:14:15 15° E 19:14:16 15° E 19:16:31 10° NE
Cosmos 1833 Rocket 2.6 19:11:27 10° SSW 19:17:03 79° ESE 19:22:43 10° NNE
Cosmos 1697 Rocket 2.7 19:11:32 10° NNW 19:17:12 86° ENE 19:21:20 19° SSE
CENTAUR R/B 3.7 19:17:41 18° ESE 19:18:18 18° ESE 19:22:29 10° ENE
SPOT 3 Rocket 4.5 19:15:42 10° S 19:20:41 46° W 19:25:43 10° NNW
Cosmos 389 Rocket 3.6 19:17:52 10° NNW 19:21:07 40° W 19:24:20 10° SSW
Cosmos 1633 Rocket 3.1 19:18:04 15° S 19:21:41 59° E 19:26:02 10° NNE
Cosmos 1812 3.5 19:19:15 10° NNW 19:23:00 50° W 19:26:34 11° S
Cosmos 1867 3.9 19:19:20 10° S 19:24:26 43° ESE 19:29:34 10° NE
Resurs 01 Rocket 2.6 19:27:39 10° S 19:31:51 44° W 19:36:07 10° NNW
Cosmos 1707 Rocket 3.8 19:28:11 10° NNW 19:32:30 68° W 19:35:43 17° S
Landsat 7 3.8 19:30:06 22° SSE 19:33:14 86° ENE 19:38:02 10° NNW
Cosmos 676 Rocket 4.1 19:33:52 14° S 19:38:22 56° ESE 19:43:36 10° NNE
Cosmos 1934 Rocket 4.0 19:32:29 10° S 19:38:51 84° E 19:45:16 10° N
Meteor 1-25 Rocket 4.4 19:35:38 23° SSE 19:38:52 50° E 19:44:15 10° NNE
FALCON 9 DEB 3.1 19:35:36 10° SW 19:39:02 57° SE 19:41:53 14° ENE
Aureole 1 Rocket 4.3 19:35:08 10° S 19:41:44 72° ESE 19:49:54 10° NNE
Cosmos 192 4.4 19:36:52 10° NNW 19:41:46 62° ENE 19:43:58 31° SE
deb Kosmos-1763 3.9 19:40:15 26° S 19:42:08 69° ESE 19:45:46 10° NNE
IGS 5A 3.6 19:41:07 25° S 19:43:28 72° W 19:47:36 10° NNW
NOSS 3-2 (A) 3.6 19:38:11 10° S 19:43:31 46° ESE 19:49:32 10° NE
Cosmos 2360 4.3 19:38:25 10° NNW 19:44:11 78° WSW 19:47:32 26° SSE
Cosmos 1470 Rocket 3.6 19:42:24 31° SSE 19:44:20 57° E 19:48:39 10° NNE
USA 267 3.4 19:39:40 10° NE 19:46:12 76° NNW 19:52:44 10° WSW
NOSS 3-2 (C) 4.0 19:48:31 29° SE 19:49:34 31° ESE 19:55:00 10° NE
GP-B 3.1 19:46:13 10° N 19:50:41 83° W 19:53:14 25° S
OPS 6432 4.5 19:48:28 10° SW 19:52:48 86° SE 19:56:05 10° NE
Meteor 2-20 Rocket 4.5 19:50:19 10° N 19:56:31 81° W 20:00:27 24° S
Cosmos 921 Rocket 3.0 19:52:49 10° NNW 19:57:01 60° ENE 19:58:03 45° ESE
Shenzhou-11 Module 4.3 19:55:16 10° WSW 19:55:30 12° WSW 19:55:30 12° WSW
ERS-1 Rocket 2.9 19:56:08 34° SSE 19:58:22 80° ENE 20:03:25 10° NNW
Cosmos 1862 Rocket 3.7 19:54:35 10° NNW 19:59:05 74° W 20:01:01 33° S
SL-16 R/B 3.2 19:54:47 10° NNW 20:00:00 35° NE 20:02:26 25° E
Lacrosse 5 2.8 19:58:43 10° NW 20:03:32 41° NNE 20:06:21 22° E
Cosmos 468 Rocket 4.4 19:58:39 10° NNW 20:03:50 50° ENE 20:05:37 35° ESE
Cosmos 2369 4.5 19:59:23 10° NW 20:04:51 46° WSW 20:08:05 23° S
SAR-Lupe-2 3.4 20:03:38 10° NNE 20:07:14 78° ESE 20:07:36 68° SSE
Cosmos 1741 Rocket 4.5 20:08:04 37° ESE 20:08:35 38° ESE 20:13:27 10° NE
Cosmos 2082 Rocket 2.5 20:04:30 10° SW 20:10:11 70° WNW 20:15:52 10° NNE
BREEZE-M DEB (TANK) 3.4 20:08:20 10° WNW 20:09:55 32° NNW 20:09:55 32° NNW
Cosmos 1954 Rocket 4.1 20:06:50 12° SSW 20:11:44 80° WNW 20:17:06 10° NNE
Cosmos 2278 4.1 20:08:37 10° NNW 20:14:13 57° WSW 20:16:44 32° S
Spot 2 Rocket 4.5 20:11:25 20° SSW 20:14:32 42° W 20:19:23 10° NNW
Meteor 1-4 Rocket 4.4 20:18:27 10° NW 20:21:17 24° W 20:22:27 20° WSW
CARTOSAT-1 3.9 20:20:04 41° SSW 20:21:19 59° W 20:25:36 10° NNW
USA 234 3.3 20:18:45 36° SSE 20:21:33 66° SW 20:28:04 10° NW
Cosmos 1184 Rocket 4.3 20:21:02 26° WSW 20:22:09 34° WNW 20:25:14 10° N
Terra 1.7 20:21:08 51° SSE 20:22:20 86° ENE 20:27:08 10° NNW
Cosmos 2100 Rocket 4.3 20:20:53 39° SE 20:22:30 49° E 20:28:23 10° NNE
Cosmos 2322 Rocket 2.9 20:17:05 10° NNW 20:22:30 42° NE 20:24:25 32° E
Cosmos 1933 Rocket 3.6 20:24:16 45° SSW 20:25:33 76° W 20:30:00 10° N
Cosmos 1605 Rocket 4.2 20:21:08 19° SSW 20:25:35 68° W 20:31:40 10° N
Cosmos 1238 Rocket 3.2 20:28:02 42° WNW 20:28:02 42° WNW 20:30:47 10° N
Okean 1 3.4 20:27:00 10° NNW 20:31:02 69° W 20:31:27 63° SW
Cosmos 1602 4.0 20:31:38 57° SW 20:32:09 66° W 20:36:05 10° N
ATLAS 3B R/B 3.8 20:34:00 24° E 20:34:00 24° E 20:38:03 10° ENE
Cosmos 1437 Rocket 2.6 20:31:49 10° N 20:35:27 80° N 20:35:27 80° N
Cosmos 1869 Rocket 3.8 20:35:53 54° E 20:35:53 54° E 20:40:05 10° NNE
Cosmos 2360 Rocket 3.4 20:31:34 10° N 20:36:38 32° NE 20:38:35 25° E
SPOT 5 3.2 20:35:54 40° SW 20:36:50 48° W 20:41:03 10° NNW
Cosmos 2173 Rocket 4.0 20:36:35 46° SE 20:38:08 60° E 20:44:10 10° NNE
USA 238 DEB 3.6 20:32:41 10° SW 20:39:20 84° NW 20:46:18 10° NE
USA 238 3.6 20:32:49 10° SW 20:39:26 85° NW 20:46:24 10° NE
Meteor 1-19 Rocket 4.2 20:35:17 10° NNW 20:40:42 73° W 20:42:13 48° SSW
Geosat 4.4 20:40:38 45° E 20:41:43 53° NE 20:46:37 10° NNW
Iridium 4 Rocket 3.3 20:41:58 56° ENE 20:41:58 56° ENE 20:45:58 10° N
JB-3 4.3 20:41:01 10° NNE 20:44:51 81° NNE 20:44:51 81° NNE
Cosmos 1980 Rocket 3.2 20:40:04 10° NW 20:45:13 36° WSW 20:47:05 29° SW
Cosmos 2242 Rocket 4.2 20:42:26 10° NNW 20:46:42 47° W 20:47:29 42° SW
Cosmos 1703 Rocket 3.6 20:42:24 10° NNW 20:46:44 64° W 20:47:05 61° SW
Meteor 1-14 Rocket 4.4 20:46:52 38° SSW 20:49:14 76° WNW 20:55:12 10° N
Cosmos 1500 3.8 20:50:18 48° NNE 20:50:18 48° NNE 20:53:07 10° NNE
Cosmos 405 Rocket 3.8 20:49:21 34° W 20:49:55 37° WNW 20:53:25 10° N
Cosmos 1763 Rocket 3.5 20:44:54 10° NNW 20:50:15 80° WSW 20:51:08 62° S
ALOS 2 4.3 20:50:20 21° ENE 20:50:30 22° ENE 20:53:50 10° NNE
SL-4 R/B 2.7 20:46:50 10° W 20:50:32 47° NNW 20:51:35 35° NNE
BREEZE-M DEB (TANK) 3.7 20:48:04 10° WNW 20:51:40 66° N 21:04:13 10° E
MOS 1-B Rocket 3.8 20:50:03 10° NNE 20:55:40 58° ESE 20:56:13 55° SE
Cosmos 2016 Rocket 4.1 20:55:14 50° SE 20:56:21 57° E 21:02:34 10° NNE
Cosmos 2333 Rocket 4.1 20:52:10 10° N 20:56:35 22° NE 20:59:21 16° E
Cosmos 2061 Rocket 4.1 20:56:26 51° SE 20:57:25 57° E 21:03:28 10° NNE
Cosmos 1536 4.4 20:58:57 25° NE 20:58:57 25° NE 21:01:09 10° NNE
Meteor 1-5 Rocket 4.3 20:58:36 58° SSE 20:59:43 74° E 21:05:40 10° NNE
Cosmos 1459 Rocket 3.9 20:58:06 51° S 20:59:50 85° E 21:06:13 10° N
Meteor 1-13 Rocket 4.2 20:54:45 10° N 21:00:17 64° ENE 21:00:56 58° ESE
Cosmos 1666 4.3 21:02:40 27° NE 21:02:40 27° NE 21:04:43 10° NNE
CENTAUR R/B 2.4 21:04:45 33° SW 21:07:45 88° NW 21:14:53 10° NE
Okean 1-7 3.8 21:04:15 10° NNW 21:08:20 42° W 21:08:30 41° W
Cosmos 2221 Rocket 3.8 21:04:57 10° N 21:09:01 63° NE 21:09:01 63° NE
Cosmos 1733 Rocket 4.1 21:13:55 36° NE 21:13:55 36° NE 21:17:03 10° NNE
Okean 3 3.7 21:10:12 10° N 21:13:59 69° NNW 21:13:59 69° NNW
Cosmos 1802 Rocket 4.0 21:13:52 56° S 21:15:25 90° NW 21:21:49 10° N
Thor Agena Rocket 3.6 21:11:40 10° NNE 21:16:25 59° E 21:16:25 59° E
Meteor 2-4 Rocket 3.9 21:12:25 10° NNW 21:18:00 59° W 21:18:53 52° SW
SL-27 R/B 4.3 21:19:37 28° N 21:19:37 28° N 21:21:27 10° NNE
ATLAS 5 CENTAUR R/B 2.4 21:20:04 10° NW 21:23:07 78° NE 21:23:25 73° E
Cosmos 44 3.3 21:18:15 10° NW 21:23:09 83° NE 21:23:09 83° NE
Cosmos 2346 Rocket 4.3 21:19:57 10° N 21:26:03 86° W 21:26:55 68° S
Spot 4 3.8 21:27:26 83° NNW 21:27:26 83° NNW 21:32:05 10° NNW
Cosmos 2233 Rocket 4.2 21:29:56 53° ESE 21:30:28 55° E 21:36:38 10° NNE
BREEZE-M DEB (TANK) 4.1 21:20:23 10° W 21:33:53 90° S 21:35:19 51° E
NOSS 3-2 (C) 4.0 21:35:51 19° WSW 21:40:03 55° NW 21:46:35 10° NE
Cosmos 1816 Rocket 4.3 21:34:50 10° N 21:41:09 82° W 21:41:57 68° SSW
Cosmos 841 Rocket 3.9 21:37:04 10° NNW 21:42:00 53° W 21:42:00 53° W
Cosmos 540 Rocket 3.8 21:38:34 10° NNW 21:43:22 53° W 21:43:22 53° W
SL-16 R/B 2.9 21:38:53 10° NW 21:44:10 41° WSW 21:44:17 41° WSW
Cosmos 1833 4.2 21:46:47 65° E 21:46:47 65° E 21:52:02 10° NNE
Lacrosse 5 2.6 21:41:42 10° WNW 21:45:31 44° W 21:45:31 44° W
Cosmos 2322 4.0 21:41:24 10° NNW 21:46:59 55° ENE 21:47:36 52° E
Cosmos 1378 Rocket 4.2 21:48:12 10° N 21:51:46 52° NNE 21:51:46 52° NNE
Tsikada Rocket 3.9 21:47:48 10° NNW 21:54:10 74° W 21:54:55 66° SW
Cosmos 2219 Rocket 2.9 21:50:14 10° NNW 21:55:42 45° ENE 21:56:38 42° E
Cosmos 2084 Rocket 4.4 21:59:01 45° NNW 21:59:01 45° NNW 22:02:50 10° NNE
Terra 4.3 22:00:02 11° W 22:00:43 12° W 22:02:22 10° WNW
Cosmos 2237 4.3 21:55:05 10° NNW 22:00:34 62° WSW 22:00:34 62° WSW
Cosmos 2333 4.3 21:55:38 10° NNW 22:01:26 70° ENE 22:01:49 68° E
Cosmos 1975 Rocket 4.5 22:01:49 10° N 22:05:17 31° ENE 22:05:17 31° ENE
Cosmos 2322 Rocket 3.2 22:01:23 10° NW 22:06:13 34° W 22:06:13 34° W
Meteor 1-11 Rocket 4.4 22:09:09 42° W 22:10:02 46° WNW 22:15:33 10° N
Cosmos 1486 Rocket 4.2 22:11:53 65° NE 22:11:53 65° NE 22:16:26 10° NNE
Helios 1A 4.0 22:13:11 43° NNE 22:13:11 43° NNE 22:16:21 10° N
Cosmos 2360 Rocket 2.7 22:15:24 10° NW 22:20:19 46° W 22:20:19 46° W
COSMOS 2428 2.9 22:16:26 10° NNW 22:22:09 63° ENE 22:22:37 61° E
ATLAS 3B R/B 2.7 22:21:12 51° WSW 22:22:54 72° NW 22:29:35 10° NE
Cosmos 489 Rocket 4.3 22:20:07 10° NNW 22:26:28 88° ENE 22:26:57 78° SSE
ALOS 2 3.9 22:27:44 35° WNW 22:27:44 35° WNW 22:30:46 10° NNW
Meteor 2-9 Rocket 4.4 22:31:37 60° E 22:31:37 60° E 22:36:59 10° NNE
Cosmos 2297 Rocket 4.0 22:34:19 19° E 22:34:19 19° E 22:37:41 10° NE
Cosmos 1743 4.4 22:38:17 32° NNW 22:38:17 32° NNW 22:40:41 10° N
Cosmos 2333 Rocket 2.2 22:35:45 10° NNW 22:41:19 77° W 22:41:19 77° W
Lacrosse 4 Rocket 2.5 22:45:23 43° N 22:45:23 43° N 22:48:33 10° NNE
NOSS 0 Rocket 4.3 22:39:39 10° NNW 22:45:51 61° ENE 22:47:14 49° ESE
Cosmos 2237 Rocket 3.2 22:40:31 10° NNW 22:45:51 40° NE 22:47:32 33° E
Cosmos 1025 Rocket 4.4 22:44:59 10° N 22:48:18 32° ENE 22:48:18 32° ENE
Cosmos 44 Rocket 3.6 22:53:07 10° NW 22:57:31 68° NNW 22:57:31 68° NNW
Cosmos 968 Rocket 3.9 22:59:01 51° WNW 22:59:01 51° WNW 23:04:00 10° NNE
CENTAUR R/B 4.4 22:53:56 10° W 22:59:30 29° NNW 23:05:53 10° NNE
Cosmos 1975 4.2 23:02:22 36° NNW 23:02:22 36° NNW 23:05:01 10° N
Cosmos 1354 Rocket 4.1 23:07:09 74° NW 23:07:09 74° NW 23:12:22 10° NNE
Resurs 1-4 Rocket 3.7 23:03:48 10° NE 23:07:52 22° E 23:08:21 22° E
Cosmos 1464 Rocket 4.0 23:15:36 60° WSW 23:16:15 64° W 23:22:26 10° N
Cosmos 1707 4.1 23:13:41 10° N 23:16:13 39° N 23:16:13 39° N
Cosmos 2227 Rocket 2.9 23:22:42 40° ESE 23:22:48 40° ESE 23:28:04 10° NE
Helios 1B rocket 3.3 23:18:45 10° NNE 23:21:48 49° N 23:21:48 49° N
Cosmos 2344 4.5 23:13:40 10° NW 23:23:05 78° NE 23:36:21 10° SE
CZ-4 R/B 4.1 23:18:14 10° N 23:23:00 67° NW 23:23:00 67° NW
Meteor 1-12 Rocket 4.2 23:28:42 75° S 23:29:15 87° E 23:35:19 10° NNE
Cosmos 1674 4.3 23:25:59 10° N 23:28:43 30° NE 23:28:43 30° NE
Cosmos 1777 Rocket 3.9 23:35:45 78° ESE 23:35:45 78° ESE 23:41:04 10° NNE
Nadezhda 4 Rocket 4.0 23:31:20 10° NNW 23:37:32 60° W 23:38:04 58° WSW
Cosmos 2219 Rocket 3.4 23:34:32 10° NW 23:38:19 29° W 23:38:19 29° W
MOZ.5/SAFIR/RUBIN 5/SL-8 4.0 23:39:37 64° E 23:39:49 65° ENE 23:44:32 10° N
Okean 2 Rocket 3.6 23:45:22 51° NW 23:45:22 51° NW 23:49:12 10° N
Cosmos 2034 Rocket 4.2 23:43:53 50° WSW 23:44:48 55° WNW 23:51:00 10° N
SL-16 R/B 2.8 23:46:15 39° SE 23:48:38 67° ENE 23:54:51 10° N
ADEOS II 3.9 23:47:37 10° NE 23:51:37 22° E 23:53:32 18° ESE
Cosmos 1300 Rocket 4.2 23:52:28 45° NW 23:52:28 45° NW 23:56:00 10° N
Cosmos 1092 Rocket 3.9 23:45:34 10° NNW 23:51:48 74° W 23:52:45 63° SSW
GEOS 3 Rocket 3.5 23:47:17 10° NE 23:52:44 84° SE 23:53:18 72° SSW
CZ-2D R/B 2.6 23:48:34 10° NNE 23:53:58 54° E 23:54:54 48° SE
Meteor 1-16 4.5 23:53:40 74° SSW 23:54:09 84° W 23:59:42 10° N
